#timestamp,LO_Frequency,Hit,StdDev 
1543759215.9,286046997.7,P
1543759235.7,286046997.5,P
1543759255.5,286046998.0,P
1543759275.4,286046996.6,Y
1543759295.2,286047000.3,P
1543759315.0,286047000.1,N
1543759315.9,286047000.1,N
1543759335.8,286047000.8,N
1543759355.6,286046998.5,N
1543759375.5,286047000.9,N
1543759395.3,286046998.5,N
1543759415.1,286047000.7,N
1543759435.9,286047000.9,N
1543759455.7,286047000.4,N
1543759475.5,286046999.8,N
1543759495.4,286047002.1,N
1543759515.2,286047001.7,N
1543759535.1,286047004.3,Y
1543759536.0,286047004.3,P
1543759555.8,286047003.9,N
1543759575.6,286047002.1,N
1543759595.5,286047001.1,N
1543759615.3,286046998.6,N
1543759635.1,286046998.4,N
1543759655.9,286046998.6,N
1543759675.7,286047000.7,N
1543759695.6,286046998.5,N
1543759715.4,286047001.2,N
1543759735.2,286047000.7,N
1543759755.1,286046998.3,N
1543759756.0,286046998.3,N
1543759775.8,286046999.1,N
1543759795.6,286046999.4,N
1543759815.5,286046998.2,N
1543759835.3,286047000.5,N
1543759855.2,286046998.3,N
1543759875.9,286046999.0,N
1543759895.7,286046999.1,N
1543759915.6,286046999.2,N
1543759935.4,286047000.8,N
1543759955.2,286046999.0,N
1543759975.1,286046999.2,N
1543759976.0,286046999.2,N
1543759995.8,286046996.8,N
1543760015.7,286046996.9,N
1543760035.5,286046996.5,N
1543760055.3,286046996.6,N
1543760075.2,286046998.9,N
1543760095.0,286046998.3,N
1543760095.9,286046998.3,N
1543760115.7,286047001.0,N
1543760135.6,286046999.1,N
1543760155.4,286046997.1,N
1543760175.3,286046995.0,Y
1543760195.1,286046998.0,P
1543760196.0,286046998.0,P
1543760215.8,286046997.5,P
1543760235.7,286046995.2,Y
1543760255.5,286046999.2,P
1543760275.3,286046999.1,N
1543760295.2,286047000.7,N
1543760315.0,286047001.4,N
1543760335.5,286047004.2,Y
1543760355.3,286047002.6,P
1543760375.1,286047002.8,N
1543760395.9,286047000.1,N
1543760415.7,286047000.6,N
1543760435.6,286047000.3,N
1543760455.4,286046999.3,N
1543760475.2,286046998.6,N
1543760495.1,286046998.6,N
1543760496.0,286046998.6,N
1543760515.8,286046998.2,N
1543760535.6,286046999.1,N
1543760555.5,286046997.6,N
1543760575.3,286046995.8,N
1543760595.2,286046995.9,N
1543760615.9,286046995.5,N
1543760635.7,286046996.7,N
1543760655.6,286046997.1,N
1543760675.4,286046996.9,N
1543760695.2,286046997.0,N
1543760715.1,286046994.9,N
1543760716.0,286046994.9,N
1543760735.8,286046995.2,N
1543760755.7,286046997.2,N
1543760775.5,286046997.4,N
1543760795.3,286046997.0,N
1543760815.2,286046997.7,N
1543760835.9,286046994.9,N
1543760855.7,286046995.0,N
1543760875.6,286046999.5,N
1543760895.4,286046996.8,N
1543760915.3,286046996.5,N
1543760935.1,286046999.4,N
1543760936.0,286046999.4,N
1543760955.8,286046999.0,N
1543760975.7,286046996.5,N
1543760995.5,286046997.4,N
1543761015.3,286046995.9,N
1543761035.2,286046995.6,Y
1543761055.0,286046998.5,P
1543761055.9,286046998.5,N
1543761075.8,286046999.2,N
1543761095.6,286046997.3,Y
1543761115.0,286047002.8,P
1543761115.9,286047002.8,N
1543761135.8,286046999.8,N
1543761155.6,286047002.1,N
1543761175.4,286047002.3,N
1543761195.3,286047002.2,N
1543761215.1,286047002.0,N
1543761235.9,286047002.8,N
1543761255.7,286047002.5,N
1543761275.5,286047001.3,N
1543761295.4,286047002.1,N
1543761315.2,286047001.3,N
1543761335.0,286047004.2,Y
1543761335.9,286047004.2,P
1543761355.8,286047000.0,N
1543761375.6,286047001.0,N
1543761395.5,286047000.1,N
1543761415.3,286047002.7,N
1543761435.1,286047002.1,N
1543761455.9,286046999.8,N
1543761475.7,286047001.9,N
1543761495.5,286047002.5,N
1543761515.4,286046999.9,N
1543761535.2,286047001.2,N
1543761555.1,286046998.6,N
1543761556.0,286046998.6,N
1543761575.8,286046998.7,N
1543761595.6,286046998.5,N
1543761615.5,286046998.5,N
1543761635.3,286047000.7,N
1543761655.1,286047000.6,N
1543761675.9,286047000.1,N
1543761695.7,286047004.3,N
1543761715.6,286047003.5,N
1543761735.4,286047002.2,N
1543761755.4,286047002.7,N
1543761775.2,286047001.6,N
1543761795.1,286047001.8,N
1543761796.0,286047001.8,N
1543761815.8,286047001.4,N
1543761835.6,286047003.1,N
1543761855.5,286047003.8,N
1543761875.3,286047003.4,N
1543761895.2,286047005.6,Y
1543761915.9,286047003.9,P
1543761935.7,286047001.5,N
1543761955.6,286047002.4,N
1543761975.4,286047001.9,N
1543761995.2,286047001.7,N
1543762015.1,286047000.1,N
1543762016.0,286047000.1,N
1543762035.8,286047000.1,N
1543762055.7,286047002.4,N
1543762075.5,286046999.7,N
1543762095.3,286046998.1,N
1543762115.2,286047002.7,N
1543762135.9,286047004.3,N
1543762155.7,286047001.5,N
1543762175.6,286047001.3,N
1543762195.4,286047004.4,N
1543762215.3,286047004.2,N
1543762235.1,286047004.4,N
1543762236.0,286047004.4,N
1543762255.8,286047001.3,N
1543762275.7,286047003.7,N
1543762295.5,286047001.4,N
1543762315.3,286047004.0,N
1543762335.2,286047001.3,N
1543762355.0,286047004.0,N
1543762355.9,286047004.0,N
1543762375.8,286047001.5,N
1543762395.6,286047001.9,N
1543762415.4,286047000.0,N
1543762435.3,286046998.7,N
1543762455.1,286046999.3,N
1543762475.9,286047000.8,N
1543762495.7,286047000.3,N
1543762515.5,286047002.2,N
1543762535.4,286047002.6,N
1543762555.2,286047002.5,N
1543762575.0,286047000.1,N
1543762575.9,286047000.1,N
1543762595.8,286047002.8,N
1543762615.6,286047002.2,N
1543762635.5,286047002.6,N
1543762655.3,286047003.9,N
1543762675.1,286047004.3,N
1543762695.9,286047003.7,N
1543762715.7,286047002.5,N
1543762735.6,286047002.5,N
1543762755.4,286047004.2,N
1543762775.2,286047003.2,N
1543762795.1,286047003.8,N
1543762796.0,286047003.8,N
